Airfield :
LOGIN :

Register | Disclaimer

   EN    FR    IT 

 










Legend :    VFR   Marginal VFR   IFR   Intensive IFR   Very Intensive IFR
Visi :
Ceiling :
>= 8 km
>= 3000ft
5 to 8 km
1000 to 3000 ft
1500m to 5 km
500 to 1000 ft
800 to 1500m
200 to 500 ft
< 800m
< 200 ft
Symbols :   Thunderstorms  Fog  Heavy snow  Heavy precipitations  Wind > 20 kt
SIGMETs :     Misc.  Thunderstorms  Icing  Turbulence  Mountain Waves  Volcanic Ashes







- Airport Elevation : 5600 ft
- IATA code : SMV


LSZS - Samedan

CURRENT METAR :
  • 202220Z AUTO VRB02KT 9999 NSC M01/M05 Q1027

EXPIRED METARs :
  • 202150Z AUTO 18002KT CAVOK 00/M04 Q1028
  • 202120Z AUTO 19003KT 9999 NSC 00/M04 Q1028
  • 202050Z AUTO 20003KT 9999 NSC 01/M03 Q1027
  • 202020Z AUTO VRB01KT CAVOK 01/M03 Q1027
  • 201950Z AUTO 22002KT CAVOK 03/M04 Q1027

TAF TAF LSZS
Valid from the 20 at 15:00 until the 21 at 00:00 UTC


201425Z 2015/2024 02004KT CAVOK TX10/2015Z
PROB40
TEMPO 2015/2018 22010KT 9999 FEW050
ATIS : +41 81 834 93 24
No reported NOTAMs for that airfield.



MET'MAP, your aeronautical weather chart ! - Copyright ORBIFLY December 2007 - Disclaimer

ORBIFLY MET'MAP TEAM :

Programming & Development : Alexandra Zaïnal
Concept & Development : Baudouin d'Aumeries
Co-Development & Prog : Marc-Olivier Méhu
Technical & hardware support : Manuel Goepfert

Contact : metmap@orbifly.com




SOURCES & CREDITS :

   NOAA